Погода в Кордове

США     35°09′20″N   89°46′34″W
темп.,
°C
ветер,
м/с
пор.,
м/с
влажн.,
%
обл.,
%
осадки,
мм/ч
давл.,
гПа
погр.,
м
16 октября, сб
сб1601:00+12ссз715790 1.8 1018747
04:00+11ссз515740 0.0 1020667
07:00+9ссз412790 0.0 1023374
10:00+15с48450 0.0 1024866
13:00+19ссз57290 0.0 10231853
16:00+19ссз58280 0.0 10221873
19:00+14ссз35440 0.0 1023100
22:00+12ссз34490 0.0 102469
17 октября, вс
вс1701:00+10ссз34570 0.0 102570
04:00+9с23600 0.0 102541
07:00+8с22620 0.0 102624
10:00+15с23410 0.0 1026426
13:00+19с33290 0.0 10251185
16:00+20с22280 0.0 10231313
19:00+14ссв12440 0.0 102316
22:00+12вюв22520 0.0 102419
18 октября, пн
пн1801:00+10юв225748 0.0 102323
04:00+10ююв22610 0.0 102322
07:00+9ююв22652 0.0 102418
10:00+16ююв22443 0.0 1024353
13:00+21ююв22302 0.0 10221137
16:00+22ююв222814 0.0 10201321
19:00+16юв33461 0.0 102042
22:00+13ююв34570 0.0 102165
19 октября, вт
вт1901:00+11ююв33630 0.0 102248
04:00+10ююв236798 0.0 102248
07:00+9ююв337199 0.0 102251
10:00+17ю3546100 0.0 1023361
13:00+21ю4534100 0.0 10211001
16:00+22ю453379 0.0 10201162
19:00+16ююв335236 0.0 102047
22:00+14ююв366524 0.0 102187
20 октября, ср
ср2001:00+13ююв3666100 0.0 1021106
04:00+13ююв2367100 0.0 102157
07:00+14ю3567100 0.0 1022108
10:00+20ю4657100 0.0 1023385
13:00+24ююз464899 0.0 10211227
16:00+26юз46475 0.0 10181683
19:00+21ююз37687 0.0 1019138
22:00+19ю498089 0.0 1019211